Theta_e
297 296 296 296 295 295 295 295 295 294 294 294 294 294 293 293 293 292 291 290 290 289 289 289 289 289 289 289 289 289 289 288 288 288 288 288 288 288 288 288 288 288 287 287 287 286 286 286 285 285 285 285 285 285 284 284 284 284 284 284 284 283 283 283 282 283 284 284 284 284 284 284 285 284 285 285 286 285 286 286 286 286 286 286 286
296 296 295 295 295 294 294 294 294 294 293 293 293 293 293 292 292 291 290 290 289 289 289 289 289 289 289 289 289 288 288 288 288 288 287 287 287 287 287 287 287 287 287 287 287 286 286 285 285 284 284 284 284 284 284 284 284 284 284 284 284 283 283 283 282 282 283 284 284 284 284 283 283 283 283 284 285 285 285 285 285 285 285 285 286
295 295 295 294 294 294 293 293 292 292 292 292 292 292 291 291 291 290 290 289 289 289 289 289 289 289 289 288 288 288 288 288 288 288 287 287 287 287 287 287 287 287 287 287 286 286 285 285 284 284 284 284 284 284 284 284 284 284 284 283 283 283 283 282 282 282 283 284 284 284 284 283 282 283 282 282 284 284 284 285 285 285 285 285 285
294 294 294 293 293 293 292 292 291 291 291 291 290 290 290 290 290 289 289 289 289 288 288 288 288 288 288 288 288 288 288 288 288 288 287 287 287 287 287 286 286 286 286 286 286 285 285 284 284 283 284 284 283 283 283 283 283 283 283 283 283 283 283 283 282 282 282 283 284 284 283 283 282 282 281 281 281 282 282 283 284 284 285 284 284
294 294 293 293 292 292 292 291 290 290 290 290 290 289 289 289 289 289 289 288 288 288 288 288 288 288 288 288 288 288 288 288 288 288 288 288 287 287 287 286 286 286 286 286 285 285 284 284 283 283 283 283 283 283 283 283 283 283 283 283 283 283 283 282 282 282 282 282 283 283 283 283 282 282 281 280 280 280 280 280 282 283 283 283 283
294 293 292 292 292 291 291 290 289 289 289 289 289 289 289 289 288 288 288 288 288 288 288 288 288 288 288 288 288 288 288 288 288 288 288 288 288 287 287 286 286 286 286 285 285 284 284 283 283 283 283 283 283 283 283 283 283 283 283 282 282 282 282 282 282 281 281 281 282 282 283 282 282 282 281 279 279 279 279 279 279 280 280 281 282
294 293 292 291 291 290 290 289 289 289 289 289 289 288 288 288 288 288 288 288 288 288 288 288 288 288 288 288 288 288 288 288 288 288 288 288 287 287 287 286 286 286 285 285 284 283 283 283 283 283 283 283 283 283 283 282 282 282 282 282 282 281 281 281 281 280 280 281 281 281 282 282 281 281 280 279 279 278 278 277 278 278 278 279 280
293 293 292 291 291 290 290 289 289 288 288 288 288 288 288 288 288 288 288 288 289 289 289 289 288 288 288 288 288 288 288 288 288 288 288 287 287 287 287 286 286 285 285 284 283 283 283 283 283 283 283 283 283 282 282 282 282 282 282 281 281 281 281 280 280 280 280 280 280 280 280 281 280 279 279 278 278 278 277 277 277 277 277 278 278
293 292 291 291 291 290 289 289 289 288 288 288 288 288 288 288 288 288 288 288 289 289 289 289 288 288 288 288 288 288 288 288 288 287 287 287 287 287 287 286 285 285 284 283 282 282 282 283 283 283 283 283 282 282 282 282 282 282 281 281 281 280 280 280 279 279 279 279 279 279 279 279 279 278 277 277 277 277 277 276 276 276 276 277 277
293 292 292 292 291 290 289 289 288 288 288 288 288 287 287 288 287 288 288 288 289 289 289 288 288 288 288 288 288 288 288 287 287 287 287 287 287 287 286 286 285 285 284 283 282 282 282 282 282 283 282 283 282 282 282 282 282 281 281 281 280 280 279 279 279 278 278 278 278 277 277 277 278 276 276 277 276 276 276 276 276 276 276 276 276
293 292 292 292 291 290 290 289 288 288 288 287 287 287 287 287 287 288 288 288 288 288 288 288 288 288 288 288 288 288 287 287 287 287 287 287 287 286 286 285 285 284 283 282 282 282 282 282 282 282 282 282 282 282 282 282 281 281 280 280 279 279 279 278 278 277 277 276 277 276 275 276 277 276 276 276 276 276 276 276 276 276 276 276 276
293 293 293 293 292 291 290 288 288 288 287 287 287 287 287 287 287 287 288 288 288 288 288 288 288 288 288 288 288 287 287 287 287 287 287 286 286 286 285 285 285 284 282 282 282 282 282 282 282 282 282 282 282 282 281 281 281 280 280 280 279 279 278 278 277 276 275 275 275 275 274 275 276 276 275 276 276 276 276 276 276 276 276 276 276
295 295 295 294 292 291 289 288 288 288 287 287 287 287 287 287 287 287 287 288 288 288 288 288 288 288 288 287 287 287 287 287 287 286 286 286 286 285 285 285 284 283 282 282 282 282 282 282 282 282 282 282 281 281 281 281 280 280 280 279 279 278 278 277 276 275 275 274 274 275 275 275 275 275 275 276 276 276 276 276 276 276 276 276 276
297 296 295 293 291 290 289 288 288 288 287 287 287 287 287 287 287 287 287 287 287 288 287 287 287 287 287 287 287 287 287 286 286 286 286 286 286 285 285 284 283 282 281 281 281 281 281 281 281 281 281 281 281 281 280 280 279 279 279 279 279 279 278 277 277 276 275 275 275 275 275 275 275 275 276 276 276 276 276 276 277 276 276 276 277
297 296 295 293 292 291 290 289 289 288 288 287 287 287 287 287 287 287 287 287 287 287 287 287 287 287 287 287 287 287 286 286 286 286 286 286 285 285 284 284 282 281 281 281 281 281 281 281 281 281 281 281 281 280 279 279 279 279 279 279 279 278 277 277 277 276 276 275 275 275 275 275 276 276 277 277 277 277 277 277 277 277 277 277 277
296 295 294 294 293 292 291 290 290 290 289 288 288 288 288 287 287 287 286 287 287 287 287 287 287 287 287 287 287 287 286 286 286 286 286 285 285 284 284 283 282 281 281 281 281 281 281 281 281 281 281 281 280 279 279 279 279 278 278 278 277 276 276 276 276 276 275 275 275 275 276 276 277 277 278 278 277 277 277 277 277 277 277 277 277
296 295 294 294 293 292 292 292 291 291 290 289 289 289 289 288 287 287 287 287 287 287 287 287 287 287 287 287 287 286 286 286 286 286 285 285 284 284 284 282 281 281 281 281 281 281 281 281 281 281 281 280 279 279 279 278 278 277 276 275 275 275 275 275 276 276 276 276 276 276 277 277 277 278 278 278 278 277 277 277 277 277 277 277 277
296 295 295 294 294 293 293 292 292 291 291 290 289 289 289 288 288 288 288 288 288 287 287 287 287 287 287 287 286 286 286 286 286 285 285 285 284 284 283 282 281 281 281 281 281 281 281 281 281 280 280 279 279 279 278 277 276 275 274 274 275 275 275 276 276 276 276 276 276 276 276 276 277 277 277 277 277 277 277 277 277 277 277 277 277
294 294 294 294 294 293 293 292 292 291 290 290 289 289 289 289 289 288 288 288 288 287 287 287 287 287 287 286 286 286 286 286 285 285 285 284 284 283 282 281 281 281 281 280 280 280 280 280 280 279 279 279 279 278 277 275 275 275 275 275 276 276 276 277 276 276 276 276 276 276 275 275 275 275 276 276 276 276 276 276 276 276 276 276 276
293 293 293 294 294 293 293 292 291 290 290 289 289 289 289 289 288 288 288 288 288 287 287 287 287 287 286 286 286 286 285 285 285 285 284 284 283 282 281 280 280 280 280 280 280 280 280 279 279 279 278 278 278 277 276 275 275 275 276 276 277 277 276 276 276 275 275 275 275 275 274 274 274 274 275 275 275 275 275 275 275 276 276 276 276
291 292 292 292 292 292 291 291 290 290 289 289 289 288 288 288 288 288 288 288 287 287 287 287 287 286 286 286 285 285 285 285 285 284 284 284 283 281 280 280 280 279 279 279 279 279 279 279 278 278 278 277 277 276 275 275 276 276 276 276 276 275 275 275 274 274 274 274 274 274 274 273 274 274 274 274 274 274 274 274 274 275 275 275 275
291 291 291 291 290 290 290 289 289 289 288 288 288 288 288 288 288 288 288 287 287 287 287 287 286 286 286 285 285 285 285 285 284 284 284 283 282 281 280 280 279 279 279 279 279 278 278 278 278 278 277 276 275 275 275 276 275 275 275 275 274 274 274 273 273 274 274 274 274 273 273 273 273 273 274 274 274 274 274 274 274 274 274 274 275
290 290 290 290 290 290 289 289 289 288 288 288 289 289 288 288 288 288 288 287 287 287 287 286 286 286 285 285 285 285 285 284 284 284 284 283 282 280 280 279 279 279 278 278 278 278 277 277 277 277 276 275 274 274 275 275 275 274 275 274 274 274 274 274 273 273 273 273 273 273 273 273 273 273 273 273 273 273 273 273 274 273 273 274 274
290 290 290 290 290 289 289 289 289 289 289 289 289 289 288 288 288 288 288 287 287 287 287 286 286 285 285 285 285 285 284 284 284 284 283 282 281 280 279 279 278 278 278 278 277 277 277 277 276 275 274 274 274 274 274 274 274 274 274 274 274 274 274 273 273 272 272 272 272 272 272 272 272 272 272 272 272 272 272 273 273 273 273 274 274
290 290 290 290 290 289 289 289 289 289 289 289 289 288 288 288 288 288 287 287 287 287 286 286 286 285 285 284 284 284 284 284 284 283 282 281 280 279 279 278 278 278 278 277 277 277 276 276 275 274 274 274 274 274 274 274 274 274 274 274 274 273 273 272 272 272 272 272 271 271 272 272 272 272 272 271 271 272 272 272 272 272 273 273 274
290 290 290 290 290 289 289 289 289 289 289 289 289 288 288 288 288 288 287 287 287 287 286 286 285 285 284 284 284 284 284 284 283 283 282 280 279 279 278 278 278 278 277 277 276 276 275 275 275 274 274 274 274 274 274 274 273 273 273 273 273 273 273 272 272 271 271 271 271 271 272 271 271 272 272 272 272 272 272 272 271 272 272 272 272
290 290 290 290 290 290 290 289 289 289 289 289 289 288 288 288 288 287 287 287 287 287 286 286 285 285 284 284 284 284 283 283 283 282 281 280 279 279 278 278 278 278 277 276 275 275 275 275 275 274 274 273 273 273 273 273 273 273 273 273 273 273 272 272 272 272 271 271 271 271 271 271 271 272 272 272 272 272 272 271 270 270 271 271 271
290 290 290 290 290 290 290 290 289 289 289 289 289 288 288 288 288 288 287 287 287 286 286 285 285 284 284 284 284 283 283 283 282 282 281 279 279 278 278 278 278 277 276 275 274 274 275 275 274 273 273 273 273 273 273 273 273 273 273 273 273 273 273 272 272 272 272 271 271 271 271 271 270 270 270 270 270 271 271 269 269 269 270 270 271
290 290 290 290 290 290 289 289 289 289 289 289 288 288 288 288 288 287 287 287 286 286 285 285 285 284 284 283 283 283 282 282 282 281 280 279 278 278 278 277 277 276 274 273 273 274 275 274 273 273 273 273 273 273 273 273 273 273 273 273 273 273 272 272 272 272 272 272 271 271 270 269 269 268 268 268 269 270 269 269 269 269 269 270 271
290 290 290 290 290 289 289 289 289 289 289 288 288 288 288 288 287 287 287 286 285 285 285 285 284 284 283 283 283 282 282 281 281 280 279 279 278 278 277 276 275 274 274 273 274 274 274 273 273 273 273 273 273 273 273 273 273 273 273 273 273 272 272 272 272 272 272 272 272 271 269 268 268 268 268 268 268 269 269 269 268 269 269 270 270
290 290 290 290 289 289 289 289 289 288 288 288 288 288 288 288 287 287 286 286 285 284 284 284 284 284 283 283 283 282 281 281 280 279 279 278 277 277 276 276 274 274 274 274 274 274 273 273 273 273 272 272 272 272 272 273 273 273 273 273 273 272 272 272 272 272 272 272 272 270 268 267 268 268 268 268 268 268 269 269 268 269 269 269 270
289 289 289 289 289 289 289 289 288 288 287 287 287 287 287 287 287 286 286 285 284 284 283 283 283 283 283 283 282 282 281 280 279 278 278 277 277 276 276 275 274 274 274 274 274 273 273 273 273 272 272 272 272 272 272 272 272 272 272 272 272 272 272 272 272 271 272 272 271 270 268 268 268 268 268 268 268 268 268 268 268 268 268 269 269
290 289 289 289 289 289 289 288 288 287 287 286 287 287 287 286 286 286 285 284 284 283 283 283 283 283 282 282 281 281 280 279 278 277 276 276 276 276 275 274 274 274 274 274 273 273 273 272 272 272 272 272 272 272 272 272 272 272 272 272 272 272 271 271 271 271 271 271 271 270 269 268 268 267 268 268 268 268 268 268 268 268 268 268 269
289 289 289 288 288 288 288 288 287 286 285 285 286 286 285 285 285 284 284 284 283 283 283 283 282 282 282 281 280 280 279 278 277 276 275 275 275 275 274 273 274 274 274 273 273 273 272 272 272 272 272 272 272 272 272 272 271 271 271 271 271 271 271 271 271 271 271 271 271 270 270 269 268 268 268 268 268 268 268 268 268 268 268 268 268
289 289 289 288 288 288 288 287 286 285 284 284 284 284 284 283 283 283 283 283 283 282 282 282 281 281 281 280 279 279 278 277 276 275 275 275 275 274 273 273 274 274 273 273 273 272 272 272 272 272 272 271 271 271 271 271 271 271 271 271 271 271 271 271 271 271 271 270 271 271 270 270 269 268 267 268 268 268 268 268 268 268 268 268 268
289 288 288 288 288 287 286 286 285 283 283 282 282 282 282 282 282 282 282 282 281 281 281 281 280 280 280 279 279 278 277 276 275 275 275 275 274 273 273 273 273 273 273 273 273 272 272 271 271 271 271 271 271 271 271 271 271 271 270 271 271 271 271 271 271 271 270 270 270 270 270 270 269 268 268 267 268 268 268 268 268 268 268 268 269
288 288 288 287 287 286 285 284 283 281 281 281 281 281 281 281 281 281 281 280 280 280 279 279 279 279 278 278 277 276 276 275 274 274 274 274 273 273 274 274 273 272 273 273 272 271 271 271 271 271 271 271 271 271 271 271 270 270 270 270 270 271 271 271 271 270 270 270 270 270 270 270 269 269 268 267 267 268 268 268 268 268 268 269 269
288 287 287 286 285 284 283 282 281 280 279 280 280 279 280 280 280 280 280 279 279 279 279 278 278 277 277 277 276 275 275 274 274 274 274 273 273 273 274 273 272 272 272 272 272 271 271 271 271 271 271 271 270 270 270 270 270 270 270 270 270 270 270 270 270 270 270 270 270 270 269 269 269 269 268 267 267 267 268 268 268 268 269 269 268
286 285 285 284 283 282 281 280 279 279 279 279 279 279 279 279 279 279 279 278 278 278 278 277 277 276 275 275 274 274 274 273 273 273 273 273 273 273 273 273 272 272 272 272 271 271 271 271 271 270 270 270 270 270 270 270 270 270 270 270 270 270 270 270 270 270 270 270 269 269 269 269 269 269 268 268 267 267 268 268 269 268 268 268 269
284 283 283 282 282 281 280 279 279 279 279 279 279 278 278 278 278 278 278 277 277 276 276 275 276 275 274 274 273 273 273 273 273 273 273 272 272 273 273 272 271 271 271 271 271 270 270 270 270 270 270 270 270 270 270 270 270 270 270 270 270 270 270 270 270 270 270 270 269 269 269 269 268 268 269 268 267 267 268 268 269 268 268 269 269
282 282 281 281 280 280 279 279 279 279 278 278 278 278 277 277 277 276 276 275 275 274 274 274 274 274 273 273 272 272 272 272 272 271 271 271 272 272 272 271 271 270 271 270 270 270 270 270 270 270 270 270 270 270 270 270 270 270 270 270 270 270 270 270 270 270 269 269 269 269 269 268 268 268 268 268 268 268 268 269 269 269 269 269 269
281 280 280 279 279 279 279 279 278 278 278 277 277 276 276 275 275 274 274 273 273 273 273 273 273 273 272 271 271 270 270 271 270 270 270 271 271 272 272 271 270 270 270 270 270 270 270 270 270 270 270 270 270 270 270 270 270 270 270 269 269 270 270 270 270 269 269 269 269 269 268 268 268 268 268 268 268 268 269 269 269 270 270 269 269
280 279 279 279 278 278 278 277 277 277 276 276 275 275 274 274 273 273 272 272 272 272 272 272 271 271 271 271 270 269 269 269 269 269 270 270 270 271 271 270 269 269 269 269 269 269 269 269 270 269 269 269 269 269 269 269 269 269 269 269 269 269 270 270 270 269 269 269 269 268 268 268 268 268 268 268 268 268 268 269 269 270 270 270 270
279 278 278 277 277 276 276 275 275 275 274 274 274 273 273 272 272 271 271 271 271 270 270 270 270 270 270 270 270 270 269 269 269 269 269 269 270 270 270 269 269 269 269 269 269 269 269 269 269 269 269 269 269 269 269 269 269 269 269 269 269 269 269 269 269 269 268 268 268 268 267 267 267 267 268 268 267 267 268 269 269 269 270 270 270
277 276 276 276 275 275 274 274 273 273 273 272 272 271 271 270 270 270 269 269 269 269 268 268 268 268 268 269 269 269 269 269 269 268 268 269 269 269 270 269 269 268 268 268 269 269 269 269 269 269 269 269 269 269 269 269 269 269 269 269 268 268 268 268 268 268 268 268 267 267 267 267 267 267 267 267 267 267 268 268 269 269 269 270 270
275 275 274 274 274 273 273 272 272 271 271 270 270 270 269 269 268 268 268 267 267 267 267 267 267 267 267 267 267 267 267 267 267 267 268 268 268 269 269 269 268 268 268 268 268 268 268 268 268 269 269 269 269 269 269 269 269 269 268 268 268 268 268 268 267 267 267 267 267 267 267 267 267 267 267 266 266 267 268 268 268 269 269 269 270
274 273 273 272 272 272 271 271 270 270 270 269 269 268 268 267 267 266 266 266 266 265 265 265 265 265 265 266 266 266 266 266 266 267 267 267 268 268 268 268 268 268 267 268 268 268 268 268 268 268 268 268 268 268 268 268 268 268 268 268 268 268 268 268 267 267 267 267 267 267 267 266 266 267 266 266 266 266 267 268 268 268 269 269 270
272 272 272 271 271 271 270 270 270 269 269 269 268 267 267 266 265 265 265 264 264 264 264 264 264 264 264 265 265 265 265 266 266 266 266 267 267 267 267 267 267 267 267 267 268 268 268 268 268 268 268 268 268 268 268 268 268 268 268 268 268 267 267 267 267 267 267 267 267 266 266 266 266 266 266 265 265 266 267 268 268 268 269 269 269
271 271 271 270 270 270 270 269 269 269 268 268 267 267 266 266 265 265 264 264 264 263 263 263 264 264 264 264 264 264 265 265 265 266 266 266 267 267 267 267 267 267 267 267 268 268 268 268 268 268 268 268 268 268 268 268 267 267 267 267 267 267 267 267 267 267 266 266 266 266 266 266 266 266 266 265 265 266 267 267 268 268 268 269 269
270 270 270 270 270 269 269 269 268 268 268 267 267 267 266 266 265 265 264 264 263 263 263 263 263 263 264 264 264 264 264 265 265 265 266 266 266 267 267 267 267 267 267 267 267 267 267 267 267 267 267 268 268 268 267 267 267 267 267 267 267 267 267 267 267 266 266 266 266 266 266 266 266 266 265 265 265 266 267 267 267 268 268 269 269
270 270 270 269 269 269 268 268 268 267 267 267 267 266 266 265 265 264 264 264 264 263 263 263 263 263 264 264 264 264 264 264 265 265 265 266 266 266 266 266 267 267 267 267 267 267 267 267 267 267 268 268 267 267 267 267 267 267 267 267 267 267 267 267 267 266 266 266 266 266 266 266 266 266 265 265 265 266 266 267 267 267 268 268 269
Wind_Speed
20 19 18 18 17 16 15 15 14 14 13 12 12 12 12 11 11 12 12 12 12 12 12 11 11 10 10 10 11 12 14 14 15 16 17 18 19 19 20 21 21 21 22 22 22 23 23 23 24 24 24 25 26 26 27 28 29 30 30 30 31 30 30 30 32 40 44 42 43 45 43 44 47 46 47 50 52 51 52 53 53 54 54 54 54
21 21 20 20 19 18 18 17 16 16 15 14 14 14 14 14 14 14 14 14 13 13 12 11 10 9 9 10 11 12 13 14 14 16 17 18 19 20 21 21 22 22 22 22 22 23 23 23 23 24 24 25 25 26 27 28 29 30 30 31 32 31 31 31 32 37 44 46 45 47 46 43 44 45 45 48 53 53 53 53 53 53 53 52 53
23 22 22 21 21 20 20 19 18 18 17 16 16 15 15 15 15 15 15 14 14 13 11 10 9 9 9 10 11 12 13 14 16 17 19 20 21 22 23 23 23 23 22 22 22 22 23 23 23 23 24 24 25 25 26 28 28 29 30 30 31 33 32 33 34 36 42 47 47 48 48 45 44 45 44 45 50 52 52 53 53 52 52 51 52
24 24 23 23 23 22 21 21 20 19 18 17 16 16 16 16 16 16 15 15 13 12 11 10 9 9 9 10 11 13 14 16 18 19 20 22 23 24 25 25 25 24 23 23 23 23 23 23 23 24 24 24 25 25 26 27 27 28 29 30 31 32 33 33 35 36 39 45 47 47 48 47 47 47 45 42 44 46 46 49 52 52 51 51 50
26 25 25 25 24 23 22 22 21 19 19 18 17 17 17 17 17 16 15 15 13 12 11 10 9 9 9 10 12 14 15 17 19 21 22 24 26 27 28 28 27 26 25 24 23 23 23 23 23 24 24 25 25 25 26 26 28 28 30 31 32 33 34 34 35 36 38 42 46 47 47 48 48 48 44 40 42 44 43 43 47 48 48 48 48
28 27 27 27 25 24 23 23 22 20 20 19 18 18 18 18 18 17 16 15 14 12 11 10 10 10 10 11 13 14 16 18 20 22 24 26 27 29 30 30 28 27 25 24 24 24 23 23 24 24 24 25 25 26 27 27 29 30 31 32 33 34 35 35 35 36 37 40 43 46 47 47 48 48 45 41 41 44 43 41 41 40 41 45 48
30 29 29 27 26 25 25 24 22 22 21 20 20 20 20 19 19 18 17 16 14 13 11 11 10 11 12 13 14 15 17 19 21 22 24 26 28 30 31 31 29 27 25 24 24 24 24 23 24 24 24 24 25 26 27 28 29 31 31 32 33 34 35 36 36 36 38 40 42 44 46 47 47 48 46 44 43 42 39 39 41 40 39 42 44
31 30 29 28 27 26 26 24 23 23 22 22 21 21 21 21 20 19 18 16 15 13 12 12 12 12 13 14 15 16 18 19 21 23 24 27 29 30 32 32 30 27 26 25 24 24 24 24 24 24 24 25 26 26 27 28 29 31 32 32 33 34 35 36 36 37 38 40 42 43 45 47 47 46 45 43 43 42 37 36 39 39 37 38 39
31 30 29 29 28 27 27 26 25 25 24 23 23 23 23 22 21 20 19 17 15 14 14 14 14 15 15 16 16 17 19 20 22 23 25 27 29 31 32 32 30 28 26 26 25 25 25 25 24 24 25 25 26 27 27 28 29 31 32 32 33 34 35 36 36 37 38 39 42 42 43 45 45 43 42 40 39 40 37 34 34 33 31 34 36
32 31 30 29 28 28 29 28 27 26 25 24 24 24 24 23 22 21 20 18 17 16 17 17 17 17 17 18 18 19 20 21 23 24 25 27 29 31 32 32 30 28 27 26 26 25 25 25 25 25 26 26 27 28 28 29 29 31 32 32 33 33 34 35 35 35 36 38 40 39 39 42 41 39 39 39 37 37 35 30 29 28 26 30 35
32 31 29 28 29 31 31 29 28 27 26 25 26 26 25 25 24 22 21 20 20 19 20 20 19 20 20 20 20 20 21 22 23 25 26 27 29 31 32 32 30 28 27 27 27 26 26 26 26 26 27 27 28 29 29 30 30 31 31 31 31 31 32 32 33 33 33 35 36 35 34 37 38 36 36 37 37 36 33 29 27 27 26 28 32
32 31 30 31 33 33 31 29 29 29 28 27 27 27 26 26 25 24 23 22 22 22 22 23 22 22 22 22 22 22 22 23 25 26 26 27 29 31 32 32 30 29 28 27 27 27 27 27 27 27 28 29 29 30 30 31 32 33 33 33 32 31 30 30 31 31 31 32 33 32 32 34 37 37 35 35 35 34 32 29 28 28 28 28 31
31 32 33 35 35 32 30 30 30 29 29 28 28 27 27 27 27 26 25 25 25 25 24 25 24 24 24 24 24 24 23 24 25 26 27 28 29 31 32 32 30 29 28 27 27 27 27 28 28 29 29 30 31 31 32 33 34 34 34 33 32 31 30 30 30 29 28 28 31 33 33 33 36 37 35 33 34 34 33 33 31 30 32 33 36
33 34 35 36 34 32 31 30 30 30 29 29 28 28 28 29 29 29 28 27 27 27 26 27 26 26 26 25 26 25 24 25 26 27 28 28 30 31 32 31 30 29 29 27 27 27 28 28 29 29 30 30 31 32 32 33 33 33 33 33 33 32 31 30 28 27 26 27 31 35 35 33 35 37 36 34 34 35 36 38 38 38 40 43 46
33 33 34 35 34 33 31 30 29 29 29 29 29 28 29 30 30 31 30 30 29 29 28 29 28 28 27 27 27 27 25 25 27 28 28 29 30 31 32 31 30 30 29 28 27 28 28 28 29 30 31 32 32 31 31 31 32 32 33 34 34 33 32 30 28 28 29 31 34 37 37 36 36 37 37 36 37 39 41 43 45 45 46 48 48
30 31 32 34 33 32 31 29 29 28 28 29 29 29 29 30 31 31 31 31 30 30 30 30 30 29 29 28 28 27 26 26 28 29 29 29 30 32 32 31 31 30 29 28 28 28 28 29 30 31 32 33 32 31 30 30 31 32 33 34 34 34 33 31 29 30 33 33 35 37 38 38 38 37 38 39 40 41 43 45 46 45 43 44 44
28 29 31 31 31 31 30 29 28 27 28 29 29 29 30 30 30 31 31 31 31 31 31 31 31 31 30 29 28 28 27 27 28 29 29 29 31 32 32 31 31 31 29 29 29 29 29 30 30 32 33 33 33 31 29 28 29 30 31 32 33 33 34 34 34 35 35 33 33 34 35 36 36 35 36 37 38 38 40 44 45 42 40 41 43
25 26 27 28 28 29 28 28 27 27 28 29 29 29 29 29 30 30 30 31 32 32 32 32 32 31 30 29 29 29 28 28 28 29 29 29 30 32 32 32 31 31 30 30 30 30 30 31 31 32 33 33 33 31 28 26 26 27 28 30 33 36 37 37 36 35 34 33 33 33 34 35 37 39 40 40 39 37 39 44 44 41 41 43 43
21 22 23 24 26 26 27 27 27 28 28 29 28 28 28 28 29 29 30 31 32 32 31 31 31 30 29 29 29 29 29 29 28 29 28 29 30 31 32 32 32 31 31 31 31 31 31 31 31 32 33 33 32 29 26 22 23 26 28 31 35 37 36 33 32 33 34 37 40 41 41 42 41 41 41 39 36 35 36 39 39 39 41 43 43
19 19 20 21 23 24 25 26 27 28 28 27 26 26 27 27 28 28 28 29 30 30 30 30 30 29 29 29 29 29 30 30 29 29 29 29 29 30 31 32 32 31 31 31 32 31 31 31 32 33 33 32 29 27 24 22 24 27 29 32 34 34 34 34 35 38 40 43 45 45 45 43 39 37 37 36 35 36 36 36 35 34 38 41 41
18 19 19 20 22 23 24 25 26 26 26 25 24 24 24 24 24 25 26 27 28 29 29 29 29 29 29 29 29 29 30 30 29 29 29 29 29 30 31 32 31 31 31 31 31 31 31 31 32 32 31 30 28 27 25 24 24 26 29 33 35 35 36 38 40 41 42 44 44 42 41 40 38 37 38 37 37 35 34 33 32 32 33 36 38
19 20 20 21 21 22 23 24 25 24 24 23 23 23 22 22 23 23 25 26 27 28 28 28 28 29 30 30 30 30 30 30 30 29 29 29 30 30 31 31 30 30 31 31 31 30 30 30 31 31 30 29 27 25 24 25 26 29 32 34 36 36 35 37 39 40 40 40 39 39 38 38 38 37 36 36 35 33 30 30 30 30 31 32 34
20 22 22 23 23 23 24 24 24 24 23 23 23 23 23 23 23 24 26 27 27 28 28 28 29 30 30 31 32 31 30 30 31 30 30 30 30 30 30 30 29 29 30 30 30 29 29 29 30 30 28 26 25 25 27 28 30 31 32 33 33 34 34 35 35 35 35 34 34 35 35 35 35 34 33 33 33 32 30 30 30 30 32 33 33
23 24 24 24 24 24 24 24 24 24 24 24 25 26 26 25 25 26 27 27 28 29 29 29 30 31 31 32 33 33 31 31 31 30 30 30 30 30 29 28 27 27 28 28 27 27 27 28 27 26 24 25 26 28 29 29 29 29 30 29 30 30 31 31 31 30 30 31 31 31 32 32 32 31 31 31 31 31 32 32 32 31 32 33 33
26 26 26 25 25 24 24 24 24 25 26 27 28 28 27 27 27 27 27 27 28 29 30 30 31 31 32 33 34 34 33 33 32 31 30 30 30 29 28 27 26 25 25 26 26 26 25 25 24 24 25 26 27 27 27 27 27 27 27 27 27 27 27 27 28 28 28 29 29 30 30 29 29 29 29 29 29 30 31 31 31 30 31 32 33
27 28 28 27 26 26 26 26 27 27 28 29 30 30 29 28 27 27 27 27 28 29 30 31 31 32 33 34 34 34 34 34 33 31 30 29 29 29 28 28 27 25 25 25 25 24 23 23 23 24 26 25 25 26 26 26 25 24 24 24 24 23 23 24 25 26 27 28 28 29 29 28 27 27 26 26 26 26 27 27 28 28 29 30 31
29 30 30 30 29 29 29 29 30 30 31 32 33 32 31 30 29 28 27 26 27 28 30 31 32 33 33 34 35 35 35 34 33 31 30 30 30 29 29 29 27 26 25 24 24 25 25 24 24 24 24 23 23 23 24 24 23 22 22 21 21 21 21 22 24 25 26 27 28 29 29 28 27 25 24 24 25 25 25 26 27 28 28 29 31
30 31 32 33 33 34 33 33 34 34 34 35 35 35 33 31 30 28 26 25 26 27 29 31 32 33 33 34 35 35 35 35 33 31 30 30 29 29 29 28 27 26 24 22 23 27 27 25 23 23 23 22 22 22 21 22 21 21 20 20 20 20 20 21 23 24 26 27 27 28 27 26 25 25 26 26 27 27 27 27 28 28 28 28 30
32 33 34 35 36 37 38 38 38 37 37 38 37 37 35 33 31 29 27 27 27 29 30 31 32 32 33 34 35 35 35 35 33 31 30 29 29 28 27 27 26 24 20 19 24 28 27 24 23 22 22 22 22 21 21 21 19 18 19 20 20 20 20 21 23 25 26 26 25 25 24 24 25 26 27 28 29 29 28 28 28 28 28 28 29
35 35 36 37 38 39 40 41 42 41 41 40 40 39 37 35 32 31 31 30 30 30 31 32 32 33 33 34 35 35 35 34 32 30 29 29 28 27 26 26 24 21 18 22 26 26 24 23 22 21 21 21 21 20 20 20 19 18 18 18 19 20 20 21 23 25 25 25 24 24 24 24 25 26 26 28 29 29 28 28 27 28 28 28 30
40 40 39 39 39 40 41 43 44 44 43 42 42 41 39 36 35 34 34 33 31 31 32 32 32 33 34 35 35 35 34 33 31 30 29 29 28 27 27 25 22 20 23 26 25 23 22 22 21 20 20 20 19 20 20 19 18 18 17 18 19 20 20 21 23 24 25 25 25 25 24 24 25 26 26 27 28 29 30 29 28 28 28 28 30
42 41 41 40 40 40 42 43 44 45 44 44 44 43 41 38 37 36 35 34 33 32 32 32 33 34 34 35 36 36 35 33 30 29 28 28 28 28 26 23 22 24 26 25 22 21 21 21 20 20 20 19 18 19 19 18 17 18 18 18 18 19 20 21 22 23 25 26 25 25 24 24 24 25 26 27 28 29 30 30 30 29 29 29 29
38 38 39 39 39 40 40 41 42 43 43 43 44 44 42 40 38 37 35 34 33 33 33 33 34 34 35 35 35 35 35 33 31 30 28 27 28 27 24 23 25 27 25 22 22 22 21 19 19 20 19 18 18 18 18 17 17 17 17 18 18 18 19 20 22 23 24 25 25 24 24 24 25 26 27 28 28 29 31 31 31 30 30 30 30
34 35 35 36 37 37 37 37 38 40 40 41 43 43 42 39 37 36 35 35 34 34 34 34 34 34 35 35 34 34 34 33 32 30 29 28 28 26 23 24 28 27 23 21 22 22 20 19 19 19 18 18 18 18 18 17 17 17 17 18 18 18 19 20 21 23 24 24 25 25 24 24 25 25 27 28 29 30 31 32 32 31 31 32 32
32 33 33 34 34 34 35 35 36 37 38 39 40 40 39 37 35 35 35 35 35 35 35 34 33 33 34 35 34 34 33 32 31 30 29 29 28 25 24 27 29 27 23 21 22 22 21 19 18 18 18 18 18 18 18 18 17 17 17 18 18 18 19 20 21 23 24 25 25 26 26 25 25 24 26 27 28 29 31 32 32 32 32 32 32
33 33 33 33 33 33 33 33 33 34 35 35 35 35 35 35 35 35 35 35 35 35 35 35 34 33 33 35 35 34 33 32 31 30 29 28 27 27 29 29 28 25 24 23 22 21 20 19 18 18 18 18 18 18 18 18 18 18 18 18 19 19 20 21 23 24 25 26 26 27 27 27 26 25 25 26 28 29 31 32 33 33 33 32 32
33 33 33 32 31 31 30 30 30 31 31 32 33 33 34 34 34 34 34 34 34 34 34 34 34 33 33 34 34 34 33 32 31 30 29 27 28 31 31 29 26 25 24 23 23 22 21 19 19 19 19 19 19 19 19 19 19 19 19 19 20 20 21 22 23 24 25 27 27 28 28 28 28 26 25 26 28 30 32 33 33 34 34 33 31
31 31 31 30 28 28 27 27 27 28 29 31 31 31 32 32 32 33 33 34 34 35 35 34 34 33 33 33 33 33 33 33 32 31 29 28 30 33 31 28 26 25 24 24 23 23 21 20 19 19 19 19 19 19 19 19 20 20 20 20 20 21 22 22 23 24 26 27 28 28 29 29 29 28 26 25 27 30 33 34 35 35 35 34 32
27 27 26 25 24 24 24 25 25 26 28 28 29 29 30 31 32 33 34 34 35 36 36 36 35 34 32 31 32 32 32 33 33 32 29 29 31 33 31 28 27 26 24 24 24 23 22 21 20 19 19 19 19 19 20 20 21 21 21 21 22 22 23 23 24 25 26 27 28 29 29 29 30 30 28 26 26 29 33 35 35 35 35 34 33
23 22 21 21 21 21 22 23 24 25 26 27 28 29 30 31 32 33 34 34 35 35 35 35 36 34 31 29 30 31 32 33 33 32 30 30 31 32 30 29 27 26 24 24 24 24 23 22 21 20 20 20 20 20 21 21 22 22 23 23 23 24 24 25 25 26 26 27 28 29 29 29 30 31 30 27 25 29 33 35 35 34 34 34 34
19 18 18 18 19 20 21 22 24 25 26 27 28 29 30 31 32 32 33 34 34 35 35 35 35 33 31 29 28 30 32 33 33 31 30 30 30 31 30 29 27 25 24 24 25 24 24 23 21 20 20 20 20 21 22 22 23 24 24 24 24 25 25 26 26 26 27 28 28 29 30 30 30 30 30 27 26 29 32 33 33 34 34 34 33
17 17 17 18 19 21 22 23 24 25 26 27 28 28 29 31 31 32 33 34 34 35 35 35 34 33 30 28 27 28 31 33 33 32 31 30 30 29 28 27 27 25 24 25 25 25 24 23 22 21 21 21 21 21 22 23 24 24 25 25 25 26 27 27 27 27 28 29 29 29 30 30 30 30 29 27 26 29 31 32 33 33 34 34 33
17 17 18 19 20 21 22 23 25 26 27 27 28 28 29 30 31 32 33 34 34 35 35 35 34 33 31 29 27 28 30 33 34 33 31 29 27 27 26 26 26 26 25 25 26 25 24 23 22 22 21 22 22 22 23 24 25 26 26 26 27 27 28 28 29 29 29 29 29 29 29 30 30 30 29 27 26 28 30 31 31 32 33 33 33
17 18 18 19 20 21 22 23 24 25 26 28 28 29 30 31 32 32 33 34 34 34 34 34 33 32 31 30 28 29 31 32 33 34 32 28 26 26 27 27 27 26 25 25 25 25 24 23 23 23 23 22 23 23 24 24 25 27 27 28 28 28 28 29 29 29 29 29 29 29 29 29 29 29 29 27 26 28 29 30 31 32 32 32 33
16 17 18 19 20 21 22 23 24 25 26 27 28 29 29 30 31 32 33 33 34 34 34 33 32 31 31 30 29 29 30 31 32 33 32 29 26 26 27 27 27 26 25 25 25 25 24 24 24 24 24 23 24 24 25 25 26 27 28 29 29 29 28 28 29 28 28 28 28 28 28 29 28 29 28 26 26 27 28 29 29 30 31 32 32
17 17 18 19 20 20 21 22 22 23 23 24 25 26 27 28 29 30 30 31 32 32 33 32 32 31 30 30 29 28 28 29 30 30 30 28 26 26 27 27 27 26 25 24 24 25 24 24 25 25 25 25 25 25 26 26 27 27 28 28 28 28 27 27 28 27 26 26 26 27 28 28 28 28 27 26 26 27 27 27 28 29 30 31 31
17 17 17 17 17 17 18 18 18 18 19 19 20 22 23 24 25 26 27 27 27 28 29 29 29 29 28 28 28 27 27 27 27 27 27 26 25 25 26 26 26 26 25 24 24 24 24 25 25 26 26 26 26 26 26 26 26 27 27 27 27 27 27 27 28 27 26 25 25 26 26 27 28 27 26 25 26 27 27 27 28 28 29 29 29
15 14 14 14 14 14 15 15 15 16 17 18 18 19 20 21 22 23 24 24 24 24 25 25 25 25 25 25 25 25 25 25 25 25 24 24 24 24 25 25 25 25 25 25 24 24 25 25 25 26 27 27 27 27 26 26 26 26 26 26 26 27 27 27 27 27 26 25 25 25 25 26 27 26 24 24 26 27 27 27 27 27 28 28 28
13 12 12 12 12 13 14 14 15 16 17 18 19 19 20 21 21 22 22 22 22 22 23 23 22 22 22 22 22 22 22 23 23 23 23 22 23 23 24 24 24 25 25 25 24 24 24 25 25 26 26 27 27 27 26 26 26 25 25 26 26 26 26 25 25 25 25 24 24 24 25 25 26 24 22 23 25 27 26 26 26 26 27 26 26
12 12 12 12 12 13 13 14 15 15 16 17 18 19 19 20 20 20 21 21 22 21 22 21 21 21 21 21 21 21 21 20 21 21 21 21 22 22 22 23 23 24 24 24 24 24 24 24 24 25 25 26 26 26 27 27 26 25 25 25 25 25 24 24 23 23 23 23 23 24 24 25 24 22 21 22 24 25 25 25 25 25 25 25 24
12 12 12 12 12 12 13 13 14 15 16 16 17 18 19 19 19 19 19 20 20 20 21 21 20 20 20 21 20 20 20 20 20 20 20 20 20 21 21 22 23 23 24 24 24 23 23 23 24 24 25 25 25 26 26 25 24 24 24 24 24 24 23 23 22 21 21 21 22 23 24 24 23 22 20 21 22 23 23 23 23 23 23 23 23
Wind_Direction
204 204 204 205 208 210 213 215 216 218 221 224 228 233 236 239 243 247 249 253 256 259 264 270 277 287 297 305 310 314 315 317 317 317 317 316 314 312 311 309 307 306 305 305 305 305 305 306 307 308 308 309 311 313 315 316 317 318 318 318 318 318 318 315 311 310 312 314 315 317 319 318 317 316 314 312 311 311 310 310 309 309 309 308 308
207 207 208 210 213 215 217 219 221 223 224 227 231 234 237 239 241 244 245 247 252 256 260 267 277 287 298 305 310 313 316 320 323 325 327 326 325 323 320 317 314 312 310 309 308 308 309 309 309 309 310 311 313 314 316 317 317 317 317 318 317 317 317 316 314 313 314 315 316 318 319 319 316 315 314 313 312 312 310 309 308 308 308 307 306
210 212 213 215 217 218 220 221 223 224 225 228 232 234 236 238 239 240 243 246 250 253 258 265 275 287 297 304 310 314 319 323 327 330 331 332 331 330 328 325 320 317 314 312 311 311 311 311 311 311 312 313 315 316 316 316 316 316 315 315 315 315 316 316 315 315 315 315 316 318 318 317 314 313 312 311 311 311 310 309 308 307 307 306 305
213 215 216 218 220 221 222 224 225 226 227 229 232 234 236 237 238 240 242 244 246 250 257 265 274 285 296 304 312 317 320 323 325 327 329 329 331 331 330 328 324 319 315 313 312 311 311 312 312 313 313 314 315 316 317 316 315 315 314 314 314 314 315 316 316 315 315 314 314 316 316 314 313 312 312 310 310 309 307 307 307 306 305 305 305
215 218 220 221 222 224 225 226 226 227 229 231 233 235 237 238 239 241 241 243 246 250 256 263 273 285 297 307 313 317 319 320 322 324 325 326 328 329 330 329 325 320 316 314 312 312 312 312 313 313 314 315 317 317 317 317 317 316 316 316 316 316 316 315 315 313 312 312 313 314 314 312 311 311 310 309 307 306 306 306 307 307 305 304 303
218 220 222 224 225 226 227 227 228 229 231 233 235 237 239 239 240 241 241 243 246 249 254 263 275 287 297 304 309 312 316 318 320 322 323 324 326 328 329 329 325 319 315 312 311 311 311 311 311 312 313 315 317 318 318 319 319 319 319 318 318 317 316 315 314 312 310 309 310 310 311 310 309 309 308 307 306 307 308 309 308 307 305 304 303
221 222 224 226 227 229 230 230 231 232 234 235 237 239 239 240 240 241 243 245 246 249 257 267 276 286 293 298 303 308 312 315 317 319 321 323 325 326 327 327 323 317 312 311 310 310 310 310 310 311 314 316 318 319 321 321 321 320 319 318 317 315 315 313 312 310 309 308 308 308 309 309 308 307 307 307 307 308 310 311 310 308 308 308 307
225 225 227 228 230 231 233 233 233 234 236 237 238 239 238 239 240 241 243 245 246 252 260 267 274 280 287 293 299 304 309 312 314 316 319 321 323 324 325 325 321 315 310 310 310 310 309 309 310 312 315 317 319 320 322 321 319 318 317 316 315 313 312 311 310 309 308 308 308 307 307 307 307 307 307 308 308 309 311 313 311 310 312 312 311
227 228 229 231 233 235 235 234 234 235 237 238 238 239 238 238 240 242 243 245 249 256 261 266 271 277 284 291 296 302 306 308 311 314 316 319 321 323 323 321 317 312 309 309 309 309 309 308 310 312 314 316 318 318 319 318 316 315 315 314 313 311 310 309 309 308 308 307 307 306 306 305 305 306 307 308 309 310 314 315 312 309 310 310 310
230 231 233 235 237 237 237 236 236 237 238 238 239 239 238 239 241 243 244 247 252 258 262 265 270 277 283 289 294 298 302 304 308 311 314 317 319 320 320 318 314 310 308 309 309 308 308 308 309 311 313 315 316 316 317 316 314 313 313 311 310 309 308 307 306 305 305 304 304 305 304 303 304 306 308 309 311 312 315 315 309 306 306 306 308
233 235 238 240 240 240 239 237 237 238 238 238 239 240 239 240 242 244 246 250 255 259 262 266 271 277 283 288 292 295 299 302 305 308 312 315 317 317 317 315 312 308 308 309 308 308 308 308 309 311 313 315 315 315 315 314 312 311 310 309 307 306 304 303 302 301 301 302 303 304 302 302 306 308 308 311 314 314 312 308 301 301 302 301 303
238 240 242 243 242 241 240 238 238 239 239 239 241 241 241 241 244 246 249 254 258 260 263 268 272 277 282 287 290 293 297 300 303 306 310 313 315 315 315 313 309 307 308 308 308 309 308 308 310 312 314 315 315 315 315 314 313 312 310 309 308 306 303 300 300 301 301 302 303 302 301 303 306 307 307 311 314 310 306 301 297 296 296 294 295
242 245 245 244 243 242 241 239 239 240 241 242 243 242 243 244 246 249 252 255 259 261 264 269 273 277 282 286 288 291 294 297 300 305 309 312 313 313 312 310 307 306 308 308 308 308 308 309 311 313 314 315 315 316 316 314 313 311 309 309 306 304 302 300 300 302 301 298 297 300 303 303 302 304 306 308 308 303 300 298 296 293 291 291 294
246 247 246 245 244 242 240 240 241 242 243 244 245 244 245 246 248 251 254 256 260 262 266 270 273 277 281 285 287 289 291 295 300 304 308 310 311 310 309 307 305 305 307 307 307 307 308 309 311 312 313 314 315 316 315 313 311 308 306 305 303 303 303 304 305 306 304 301 299 301 304 301 298 301 304 303 298 296 295 296 296 294 292 294 296
247 247 246 245 244 242 241 240 241 244 244 245 246 247 247 249 250 253 255 258 262 264 267 270 274 278 281 283 285 287 289 294 299 304 307 309 309 308 306 305 303 304 305 305 305 306 307 308 310 311 312 313 315 316 315 311 308 305 304 304 305 307 307 307 310 311 311 310 305 302 302 301 300 301 303 300 295 294 296 294 294 295 295 295 296
244 244 243 244 244 242 241 240 242 244 245 246 248 248 249 251 253 255 258 261 264 267 269 272 275 278 280 281 283 285 288 294 298 302 305 306 306 306 304 302 301 302 302 303 304 304 306 307 309 311 313 314 316 315 312 309 307 306 307 307 308 310 310 310 312 313 310 304 297 295 296 299 299 299 300 300 296 296 298 295 293 294 295 294 293
238 238 238 239 240 240 239 240 243 245 246 247 248 249 252 254 256 259 262 264 267 269 271 273 275 277 278 279 281 283 287 292 297 300 302 304 304 303 301 299 299 300 300 302 302 303 305 307 309 312 313 314 314 313 312 311 309 309 310 309 308 307 308 312 314 313 310 301 291 288 290 292 293 291 290 289 288 289 292 291 290 291 291 290 289
235 235 236 236 235 235 237 239 243 245 246 247 248 251 254 257 260 263 265 268 269 271 271 273 274 275 276 277 279 281 285 290 295 297 300 302 302 300 298 297 298 299 300 301 302 302 305 307 310 312 312 313 314 314 314 313 310 307 306 306 305 304 307 312 313 311 311 305 295 290 289 289 288 286 283 282 283 284 284 284 286 286 285 284 285
238 239 239 238 235 235 237 239 242 243 244 246 248 252 256 259 262 265 266 268 269 269 270 271 272 273 273 275 276 279 284 289 292 295 297 299 299 297 296 296 297 299 300 300 300 301 304 307 310 310 312 314 315 314 314 310 304 304 305 305 304 304 307 309 307 304 302 297 292 290 288 289 290 289 287 286 285 283 281 282 283 282 281 280 282
242 241 239 237 237 237 237 239 240 241 243 246 248 252 255 258 261 262 263 265 266 267 267 268 269 270 271 271 273 278 283 288 291 293 295 296 296 295 294 296 297 298 299 298 299 301 304 307 310 312 314 314 313 312 311 306 303 305 306 301 297 297 299 298 295 294 291 290 290 290 290 292 291 289 289 288 286 284 284 284 282 277 277 279 280
242 239 237 234 233 233 234 237 239 240 243 245 245 248 250 253 257 260 261 262 263 264 265 266 267 268 269 270 273 277 283 287 290 292 294 295 295 293 293 295 296 297 297 297 299 302 306 309 311 312 312 311 312 313 312 308 303 299 294 289 287 291 295 293 290 290 291 291 293 294 294 295 294 293 294 294 292 290 289 287 283 277 274 276 278
240 239 237 235 234 236 238 241 242 242 242 241 241 245 248 253 258 261 262 263 263 264 265 265 265 267 268 271 274 278 282 286 289 291 293 293 293 292 292 294 296 296 297 298 300 304 307 309 309 308 310 312 315 313 306 301 297 293 291 292 293 294 295 293 291 293 295 296 297 297 298 299 298 299 299 297 296 295 291 286 282 278 274 272 274
240 238 237 238 241 244 245 244 242 241 240 241 243 247 250 254 259 261 263 264 265 265 265 265 265 267 269 272 275 278 282 285 288 290 292 291 290 290 291 293 295 296 296 297 300 302 303 304 305 308 312 313 308 302 299 298 299 299 300 301 300 299 297 296 297 299 300 300 301 302 303 304 304 304 303 302 301 300 296 291 286 282 279 278 279
239 238 240 243 246 246 244 242 240 240 242 244 246 248 251 254 258 261 263 264 265 266 266 265 266 268 270 273 277 280 282 285 287 289 290 290 289 289 290 292 292 293 293 294 296 299 301 303 306 308 306 302 299 300 302 304 305 306 307 307 306 305 305 305 306 307 307 307 308 308 309 310 309 308 307 305 302 299 297 294 292 290 288 287 288
241 242 244 247 248 246 243 241 242 243 245 247 248 250 252 255 257 260 262 263 265 267 267 267 267 268 271 274 278 281 284 286 287 288 288 288 287 288 290 290 290 290 290 292 295 298 300 301 302 300 298 298 302 306 309 310 312 314 314 314 313 313 313 314 315 315 315 315 314 314 314 314 313 311 308 306 302 300 300 299 297 297 296 294 294
246 247 248 249 249 247 246 245 246 248 248 250 250 251 253 255 256 259 260 262 265 267 267 268 269 270 272 275 278 281 284 286 287 288 288 287 286 288 289 289 290 290 291 295 298 298 297 298 299 300 302 305 310 312 314 315 317 318 318 317 318 320 322 324 325 324 323 322 320 320 320 319 317 314 311 309 306 304 306 307 304 302 301 299 298
250 251 252 252 251 251 251 250 251 251 251 252 252 252 253 254 254 256 259 261 264 266 268 268 269 270 273 275 277 280 282 284 286 288 288 288 288 289 289 291 292 293 297 301 300 297 299 304 305 306 307 308 310 311 313 315 317 319 320 321 324 330 333 335 334 332 330 328 327 326 325 324 323 321 319 318 316 315 317 316 310 306 305 303 300
254 254 255 256 256 256 256 255 255 254 254 254 254 253 254 254 253 255 259 261 263 265 267 267 269 271 273 275 277 280 281 283 286 287 287 288 288 289 290 292 293 296 301 303 296 296 303 308 307 305 306 306 307 309 312 315 318 322 325 327 332 337 340 341 341 338 336 333 330 328 328 328 329 330 329 327 325 324 323 318 311 307 306 303 299
256 258 259 259 259 260 260 259 258 257 256 256 255 254 254 254 253 254 256 258 259 262 264 267 269 271 272 274 277 280 282 285 287 288 287 287 286 288 290 291 293 297 300 291 286 293 302 304 302 303 304 304 307 311 313 315 319 323 328 332 337 340 342 343 343 342 339 336 333 333 335 334 333 331 328 325 323 324 322 317 312 309 308 304 299
257 259 261 262 263 263 263 262 261 259 257 255 254 253 253 252 251 252 253 254 256 259 262 266 269 271 273 275 277 280 282 284 286 285 284 284 285 287 288 289 291 292 283 275 281 292 298 296 297 300 300 301 306 310 311 313 318 324 330 334 337 339 341 342 343 343 341 338 338 341 340 334 329 327 324 322 323 325 325 321 316 313 310 306 301
258 260 263 265 266 266 265 264 263 260 258 256 253 252 251 251 250 251 253 254 256 258 261 265 268 271 274 276 278 279 280 281 281 281 282 283 285 285 286 287 285 278 272 276 285 291 290 290 294 295 296 299 304 306 308 312 318 324 329 333 335 338 339 340 341 341 339 341 344 345 339 329 324 323 322 321 321 324 326 325 320 316 313 309 304
261 263 265 266 266 266 266 265 264 261 259 256 254 252 251 250 250 252 253 256 257 259 261 265 268 271 274 276 278 279 279 279 279 278 279 281 281 281 283 281 276 272 275 283 287 285 283 287 290 290 292 297 300 302 305 310 315 321 326 329 332 335 336 338 339 339 339 342 344 341 334 327 323 322 322 320 321 323 325 325 322 318 315 311 308
265 266 266 266 265 266 266 265 265 263 260 258 256 253 251 251 252 254 255 256 258 260 262 265 268 270 273 275 276 277 278 278 278 278 278 279 279 280 280 275 270 273 279 283 282 280 281 282 284 285 289 293 296 297 300 305 311 317 322 325 328 332 335 336 337 338 340 342 341 337 334 331 327 324 323 322 320 320 321 323 323 322 319 314 311
268 267 266 266 266 266 267 266 265 264 261 259 257 254 252 252 254 255 256 257 258 259 262 264 267 270 272 273 273 274 275 275 276 277 278 278 278 278 275 269 270 275 280 278 275 276 277 277 279 282 285 288 291 293 296 301 307 312 316 321 325 329 332 335 337 338 340 341 340 338 337 335 331 327 324 323 321 320 321 322 322 322 320 316 313
270 269 269 269 269 269 269 267 266 263 260 258 256 254 253 253 254 255 256 258 259 261 264 266 268 270 271 272 272 271 272 273 274 274 274 275 275 271 265 265 269 275 277 274 270 271 272 273 275 278 281 283 287 289 293 298 304 308 313 317 321 326 330 332 335 336 338 340 340 340 338 336 333 329 324 323 322 322 322 322 322 321 319 317 314
272 272 272 272 272 271 270 268 265 261 258 256 254 252 252 253 254 255 256 258 260 263 266 268 270 270 271 271 271 271 271 272 272 271 271 272 270 266 264 266 270 273 273 271 268 266 268 271 272 274 276 279 282 286 290 295 300 305 310 312 316 321 325 328 331 333 336 337 338 339 338 336 334 332 327 324 323 323 323 324 324 322 320 317 314
272 272 273 273 273 271 269 266 262 258 256 253 252 252 253 254 256 257 259 261 263 265 267 268 269 269 269 269 271 272 273 273 271 270 270 268 264 264 267 269 269 269 269 268 265 264 265 267 268 269 272 275 278 282 287 292 296 301 304 307 312 317 320 323 326 329 331 333 335 336 337 335 334 333 328 323 322 324 326 326 325 322 321 320 317
273 273 273 272 270 268 265 262 258 255 254 253 254 255 257 259 261 263 265 267 268 269 270 270 269 268 267 268 268 270 270 270 269 268 268 265 263 265 269 269 266 265 264 262 261 261 262 263 264 266 268 272 276 280 284 288 293 297 300 304 308 312 316 319 321 324 327 329 331 332 332 332 333 332 329 323 322 325 327 327 326 325 325 324 321
274 273 272 270 268 265 262 259 256 255 256 257 259 261 263 265 266 268 269 270 271 271 271 271 270 269 269 269 269 269 268 267 267 267 265 262 262 266 268 266 264 263 260 257 257 258 260 260 261 263 266 270 275 279 283 287 290 294 298 302 306 309 312 315 318 320 322 324 325 327 328 329 329 330 328 326 323 324 326 329 329 328 326 324 323
274 274 273 271 269 266 263 261 260 261 262 264 266 267 268 269 270 271 272 272 273 273 273 273 273 273 273 271 269 268 267 266 265 265 263 260 261 264 265 264 262 260 257 254 254 256 259 260 261 262 266 270 274 278 282 286 289 292 297 300 304 307 310 312 314 316 318 319 321 322 323 325 326 326 327 327 324 324 328 330 330 329 327 326 326
273 273 271 270 269 268 267 267 267 268 269 270 271 272 273 274 274 275 275 275 275 275 275 274 274 274 273 270 267 265 265 264 263 262 260 259 260 263 264 264 262 258 254 252 253 255 257 259 261 264 267 271 275 279 282 286 289 292 296 299 303 305 307 309 311 313 313 315 316 318 319 321 322 322 324 325 325 327 330 332 331 331 331 330 328
272 272 272 272 272 273 273 274 274 275 275 276 277 278 278 279 279 279 278 278 278 278 277 277 276 274 271 268 263 261 261 262 261 259 257 257 259 261 263 263 260 256 252 251 253 255 257 259 262 265 269 272 276 280 283 286 290 293 295 299 302 304 305 307 308 309 310 311 312 314 316 317 317 318 321 323 326 329 331 332 332 334 335 334 332
275 276 276 276 276 277 278 279 281 282 282 283 284 283 283 283 283 283 282 282 281 281 280 279 278 277 274 269 264 260 259 260 262 262 261 259 259 260 260 258 256 253 250 250 253 256 258 260 263 267 270 273 277 280 283 287 290 293 296 298 300 302 304 305 305 305 306 307 309 311 313 313 314 316 318 321 325 329 330 330 332 333 334 334 335
276 277 278 279 281 282 283 284 285 286 286 287 287 287 287 286 285 285 284 283 282 281 280 278 277 275 273 270 266 262 260 261 263 265 265 263 259 256 255 254 253 251 250 250 253 256 260 262 265 268 271 274 277 280 283 286 289 292 295 297 298 300 302 303 303 303 304 305 307 309 309 309 311 313 315 319 324 327 328 329 331 331 331 332 333
280 281 283 285 285 285 286 286 286 286 287 287 288 288 288 288 287 286 286 285 284 282 281 279 277 274 271 268 264 261 258 258 259 262 264 263 259 254 253 253 253 253 252 252 254 258 261 265 268 270 273 276 278 281 284 286 289 291 293 295 297 300 301 302 301 301 302 304 305 306 306 307 308 310 312 317 323 324 325 327 329 329 331 332 331
286 286 287 286 286 286 287 287 287 289 289 290 291 291 292 292 291 290 289 288 287 285 284 282 279 276 272 269 265 262 259 258 258 259 261 261 258 255 254 254 254 255 254 255 256 259 263 266 269 273 276 278 280 282 285 287 289 291 292 294 297 299 301 301 300 300 302 303 303 303 304 305 305 306 310 316 321 321 322 325 327 328 330 331 331
288 288 288 288 289 290 291 293 295 297 299 300 302 302 302 301 300 298 296 294 291 289 287 284 282 278 275 272 269 267 264 263 262 261 261 260 258 256 255 255 256 257 258 258 259 262 265 268 272 274 277 280 282 283 286 287 289 290 292 295 297 299 300 300 299 300 301 302 301 301 302 302 302 304 309 316 319 319 320 322 325 327 329 330 331
291 292 292 294 296 298 300 304 307 310 313 315 316 317 316 315 312 309 306 302 298 295 291 288 285 283 279 276 274 272 269 266 265 263 262 260 258 256 256 257 257 259 260 261 263 265 268 270 273 276 278 281 283 285 287 288 289 291 293 296 297 298 298 298 298 298 299 299 298 298 298 297 298 302 310 316 317 317 318 320 323 325 327 329 331
295 296 298 300 303 305 309 313 315 318 321 321 321 322 322 320 317 315 311 307 303 300 296 292 289 286 283 279 276 274 271 268 266 264 263 260 258 256 257 257 259 260 262 264 266 268 270 272 274 277 279 281 283 286 288 289 291 293 295 296 297 297 297 297 297 296 296 295 295 295 294 294 296 301 309 314 315 315 316 318 322 325 326 328 330
297 299 302 305 307 310 313 314 316 318 319 319 319 319 318 316 315 313 311 307 305 302 298 295 291 287 284 281 278 276 273 271 268 265 263 262 260 259 259 259 260 262 264 266 268 270 272 273 275 277 279 282 284 286 288 290 292 294 295 295 296 296 296 296 296 296 294 292 292 291 291 291 294 300 306 310 311 312 314 318 322 324 325 326 329
297 299 302 304 306 309 311 312 314 315 315 315 316 315 313 312 311 310 308 307 305 302 299 296 291 287 284 282 280 278 276 274 271 268 266 265 263 263 262 263 263 265 266 268 270 271 273 274 276 278 280 281 283 284 286 289 291 293 293 294 295 296 296 296 297 296 294 290 287 286 287 289 292 297 302 306 308 311 314 318 321 323 324 325 329